Wind_Speed
15 15 16 16 17 17 17 18 18 18 19 19 19 19 19 19 19 20 20 20 20 21 20 20 20 20 20 19 18 18 18 18 20 22 24 27 30 32 34 35 36 36 36 35 35 34 34 33 32 32 31 30 29 28 28 26 25 24 23 22 21 18 15 16 16 14 12 10 10 9 8 10 11 12 10 11 14 17 21 23 26 29 30 29 27 24 22 21
16 17 17 18 18 18 19 19 19 20 20 21 21 21 21 21 21 21 21 22 22 22 22 22 22 22 22 21 20 20 20 19 20 20 22 24 26 28 31 33 35 35 35 36 35 34 34 34 33 33 32 31 31 30 29 28 26 25 24 23 23 20 18 18 17 15 13 12 13 10 8 9 11 10 8 9 12 15 19 21 24 28 29 28 27 24 22 21
18 18 19 19 20 20 21 21 21 22 22 23 23 23 23 23 23 23 23 23 23 23 23 24 24 24 24 23 22 22 21 21 21 21 21 22 23 25 28 31 34 35 35 35 35 34 34 34 34 34 33 33 32 32 31 29 28 26 25 24 24 22 19 19 18 16 13 13 15 12 9 9 9 8 7 8 10 14 17 20 23 26 28 28 27 24 22 21
20 20 21 21 22 23 23 24 24 24 24 25 25 25 25 26 26 26 26 26 25 25 25 25 25 25 25 25 25 24 23 23 23 22 22 22 22 24 26 29 31 33 34 35 35 34 34 35 35 35 35 35 34 34 32 31 29 28 26 25 25 23 20 19 18 17 14 15 16 13 11 9 8 7 9 8 9 13 16 18 21 24 26 27 27 25 22 21
22 23 23 24 25 25 25 26 26 26 27 27 27 27 27 27 28 28 28 28 28 27 27 26 26 26 26 27 27 26 25 25 24 24 24 23 23 23 25 27 29 31 32 34 34 34 34 34 35 36 36 36 36 35 34 33 31 29 28 26 25 23 21 18 17 17 15 15 15 14 11 9 8 9 12 10 9 11 14 17 19 22 25 26 26 25 22 21
24 25 26 26 27 27 28 28 28 29 29 29 29 29 29 29 29 29 29 29 30 29 29 29 28 28 27 27 28 28 27 27 26 26 26 25 24 24 25 26 27 28 30 32 33 33 34 34 35 36 37 38 37 36 35 34 32 31 29 28 26 24 21 18 18 18 16 15 15 14 12 9 10 11 14 12 9 10 12 16 18 20 23 25 26 25 22 22
26 27 28 28 29 30 30 30 31 31 31 31 31 32 32 31 31 30 30 30 30 30 30 30 30 29 28 28 29 29 29 29 29 28 27 27 26 26 26 26 27 28 29 31 32 32 33 34 35 36 38 39 38 38 37 36 34 33 31 29 28 25 22 21 20 19 18 18 17 15 12 9 10 13 15 13 9 9 11 14 17 19 22 24 25 25 23 21
28 29 29 30 31 31 32 33 33 33 33 33 34 34 35 35 34 33 31 30 30 31 31 31 30 30 30 30 30 30 30 30 31 30 30 29 28 27 27 27 27 28 29 31 32 32 32 33 35 37 38 39 39 39 38 38 36 34 33 31 29 26 24 24 23 20 21 22 19 16 13 8 10 14 15 14 9 8 10 13 16 18 21 23 24 24 22 21
30 31 31 32 33 33 34 35 35 35 35 35 36 36 37 37 36 35 34 32 31 31 31 31 31 31 30 31 31 31 31 31 32 32 32 31 30 29 29 29 29 29 30 30 31 31 32 33 34 36 39 39 39 40 40 40 38 36 34 33 31 28 25 26 25 24 25 24 21 18 13 9 11 14 14 12 8 8 9 11 14 17 19 21 23 24 22 20
31 32 33 34 34 35 36 36 36 36 36 37 37 38 38 38 38 37 36 34 33 31 31 31 31 31 31 31 31 31 32 32 32 33 33 33 32 32 31 31 30 31 31 31 31 31 31 32 34 36 39 40 40 41 41 41 40 38 36 34 33 30 26 26 27 26 25 24 22 19 14 11 12 13 13 10 7 8 8 10 13 15 18 20 22 23 21 20
33 33 34 35 35 36 36 36 36 36 36 37 37 38 38 39 38 38 37 36 34 32 31 31 31 31 31 31 31 32 32 32 33 33 34 34 34 34 34 33 32 32 32 32 31 31 32 33 34 36 38 40 41 41 42 42 41 40 38 37 35 33 30 30 28 25 24 23 21 19 16 14 13 13 12 11 8 8 8 9 12 14 17 19 20 21 21 20
35 35 35 36 36 36 36 36 36 36 36 36 37 37 38 39 39 38 38 37 35 34 32 31 30 30 31 31 31 32 32 32 33 34 34 35 36 36 36 35 35 34 33 33 32 32 33 33 34 36 38 40 41 42 43 43 42 41 40 38 37 36 35 35 32 27 25 23 22 20 18 15 13 13 13 12 9 8 8 8 10 12 15 18 20 20 20 20
37 37 37 37 37 37 36 36 36 36 36 36 36 36 37 38 38 38 38 37 36 35 34 32 31 31 31 31 31 32 32 32 33 33 34 35 36 37 37 38 37 36 35 35 34 34 34 34 35 36 38 40 41 43 43 44 44 43 42 40 39 38 38 38 36 33 29 25 23 20 18 16 14 13 14 14 11 8 8 8 8 10 13 17 19 19 19 19
39 39 39 39 38 38 38 38 37 37 36 36 35 35 36 36 37 37 37 37 37 36 35 34 33 31 31 31 31 32 32 32 32 33 34 35 36 37 38 39 39 39 38 37 36 36 36 36 36 36 38 40 41 43 44 45 46 44 43 42 41 39 38 37 37 36 32 27 24 19 17 17 15 15 15 14 11 8 7 8 7 8 11 15 17 18 17 18
41 40 41 40 40 40 39 39 38 37 36 35 34 34 34 34 35 36 36 36 36 36 36 35 34 33 32 32 32 32 32 32 32 33 34 35 36 37 38 39 40 41 41 40 39 38 38 38 37 37 39 40 41 43 44 46 47 46 44 43 43 41 38 37 38 38 33 28 23 19 18 18 17 17 18 15 12 9 7 8 7 6 9 13 15 17 16 17
42 42 42 42 42 41 41 40 39 37 35 34 33 33 33 33 33 34 34 35 35 36 36 35 35 34 34 34 33 33 34 34 34 34 34 35 36 37 38 40 41 42 42 42 42 41 41 40 39 40 40 41 42 43 45 47 47 47 45 44 45 44 41 39 39 38 34 27 23 21 20 19 20 21 19 16 12 9 7 8 7 5 6 11 13 15 14 16
44 44 43 43 43 42 41 40 38 36 34 33 32 32 31 31 32 32 32 33 34 34 34 35 35 35 35 35 35 36 36 36 36 36 36 37 38 38 39 40 41 42 43 44 44 44 44 43 42 42 42 42 43 43 45 46 47 47 47 47 46 46 44 40 38 38 34 27 23 23 24 23 23 23 20 17 14 10 7 8 8 3 4 9 11 13 13 14
45 44 44 44 43 42 40 39 37 35 34 33 32 31 30 30 31 31 31 31 31 31 32 33 33 33 35 35 36 37 37 38 38 38 38 39 39 40 40 41 42 43 44 45 46 47 47 46 45 44 44 44 44 43 43 44 46 48 49 49 48 47 46 42 39 38 35 29 25 26 28 27 27 24 20 18 15 11 8 8 8 3 2 7 9 11 12 13
45 45 44 43 42 40 39 38 36 35 34 33 31 30 30 29 29 29 29 28 28 28 29 29 30 31 33 34 35 36 36 38 38 39 40 40 41 41 42 43 44 44 45 46 48 49 49 48 47 47 46 45 44 43 42 43 46 49 50 50 49 48 46 43 39 36 35 32 30 31 29 27 28 25 20 19 16 13 9 8 8 4 1 5 7 9 10 12
45 45 44 42 41 39 38 37 36 35 33 32 30 29 28 28 27 27 26 26 25 25 26 26 27 28 30 31 32 33 34 36 37 38 39 40 41 42 43 44 45 45 46 47 49 50 51 50 50 49 46 45 44 42 42 44 47 50 51 51 51 50 48 46 42 37 36 33 31 35 32 28 28 25 20 20 18 15 11 9 9 6 3 4 6 7 9 10
45 44 43 41 40 39 38 37 35 34 32 30 28 27 27 26 25 25 24 24 24 24 24 24 25 26 27 28 29 30 32 33 35 36 38 39 41 42 43 44 45 46 47 48 50 51 52 52 51 49 48 47 45 44 44 45 47 50 52 53 53 53 50 49 47 42 39 36 33 35 35 32 30 26 22 22 20 17 13 11 9 7 4 4 4 5 7 8
44 43 42 40 39 38 38 36 34 32 30 28 27 26 25 24 23 23 23 23 23 22 22 23 23 24 24 25 26 28 29 31 32 34 36 38 39 41 43 44 46 47 48 49 50 51 53 53 52 52 51 50 48 47 46 46 48 50 53 54 55 55 53 52 51 47 43 41 38 37 37 35 31 29 26 23 21 19 16 12 11 9 6 5 3 3 5 7
43 42 41 40 39 38 37 34 32 29 28 26 25 23 23 22 22 21 21 22 22 21 21 22 21 21 21 22 23 25 26 28 29 31 33 35 37 39 41 43 45 47 48 49 51 52 53 53 54 55 54 52 51 49 49 48 49 50 53 55 56 56 56 54 53 50 46 42 40 39 40 37 33 31 29 26 24 21 18 15 13 10 8 6 4 2 3 5
42 41 40 39 38 37 35 32 30 28 26 24 22 21 21 20 20 20 20 20 20 20 19 19 18 18 18 18 20 22 24 26 27 29 31 33 35 37 39 41 43 45 47 48 50 52 53 54 56 56 56 55 54 52 52 51 49 50 52 55 57 57 57 56 55 54 48 42 41 41 41 38 34 32 31 29 27 24 20 18 15 11 9 7 5 3 1 3
41 40 40 38 37 34 32 30 28 26 24 22 21 20 19 19 19 19 19 18 18 17 16 15 14 15 16 17 20 22 24 26 28 29 31 32 34 35 37 39 41 43 45 47 49 51 52 55 57 57 58 58 57 55 54 52 51 51 52 55 58 58 58 58 57 56 52 43 40 41 40 38 36 34 33 31 28 26 22 20 17 13 11 10 7 4 2 1
40 40 39 37 34 32 30 29 27 24 22 21 20 19 19 19 18 18 17 16 15 13 12 12 12 14 17 19 22 24 26 28 30 31 32 33 35 36 37 38 40 41 43 44 47 49 52 55 57 58 59 60 59 59 57 55 53 52 53 54 58 59 59 60 59 58 55 47 41 41 38 36 37 36 34 31 29 27 23 23 19 14 12 12 9 6 4 2
40 38 36 34 31 30 29 27 26 23 21 20 20 19 19 18 18 16 15 13 11 10 10 11 13 16 19 21 24 26 28 30 32 33 34 36 37 38 39 40 40 41 42 43 45 47 50 53 56 58 60 61 62 62 60 58 55 53 53 55 57 59 59 60 61 59 59 52 43 41 38 34 36 38 35 31 30 28 26 25 22 17 14 13 12 9 6 4
38 36 34 31 29 28 28 26 24 22 21 20 19 19 18 17 15 14 12 10 9 9 10 12 15 18 21 24 26 29 30 32 33 34 36 38 39 40 42 43 43 43 43 44 44 46 48 51 54 57 60 63 64 64 63 61 57 56 56 55 57 59 58 60 63 61 61 57 47 42 43 40 37 37 36 33 32 32 31 28 25 21 17 15 14 11 8 7
35 33 31 29 28 27 27 25 23 21 20 19 19 17 16 14 13 11 9 8 8 10 12 14 17 20 23 26 29 32 33 34 34 36 38 39 41 42 44 45 46 47 46 45 46 46 47 48 51 56 60 64 66 65 65 63 61 59 58 57 57 59 60 61 65 64 62 61 53 45 45 46 42 38 37 37 36 35 34 30 26 24 20 17 16 14 11 9
32 31 30 28 27 26 26 24 21 20 20 19 17 16 14 12 11 9 8 8 9 11 14 16 19 22 25 28 32 35 36 36 37 37 39 41 42 44 46 47 49 50 50 49 49 48 48 50 52 54 58 63 65 66 66 65 64 62 60 58 58 60 62 64 65 65 64 63 57 48 45 48 46 42 40 40 39 38 36 32 29 27 25 20 17 16 14 12
30 30 29 28 26 26 25 23 20 19 19 18 17 15 13 11 10 9 9 9 11 14 16 19 21 23 27 30 34 37 38 38 39 39 39 40 42 44 46 48 50 52 53 53 53 53 53 54 55 54 55 58 61 64 65 66 66 65 62 61 60 61 63 65 65 66 67 65 59 52 47 47 48 46 44 43 42 39 36 34 32 30 27 23 19 17 16 14
30 29 29 27 26 25 23 22 20 18 18 17 16 15 13 11 10 9 10 11 13 16 18 21 23 25 29 32 36 39 40 40 40 39 38 37 38 41 43 46 49 52 54 56 58 59 60 59 57 56 55 55 58 60 63 66 68 67 65 64 63 62 63 65 66 68 70 69 63 55 48 47 49 48 47 46 45 42 38 36 35 32 29 25 22 19 18 16
30 29 28 26 25 24 22 21 19 18 17 17 16 15 13 12 11 10 12 13 15 18 21 23 25 28 31 34 38 40 41 40 39 37 35 32 33 35 37 40 44 47 52 55 58 61 63 62 60 58 58 57 57 58 61 65 69 69 69 67 65 64 64 67 69 71 73 71 67 57 49 48 50 49 49 49 47 45 42 39 36 34 31 28 25 22 20 19
28 27 26 24 23 22 21 20 19 18 17 17 16 15 14 12 11 12 13 15 17 20 23 25 28 30 33 35 38 41 41 40 38 35 32 30 30 31 32 34 37 41 46 50 54 58 62 64 64 62 62 61 61 61 62 65 68 71 72 69 66 66 68 70 72 73 74 72 70 61 51 50 51 50 50 51 49 47 44 40 37 36 33 30 28 25 23 21
26 25 23 22 21 20 20 19 18 17 17 16 16 15 14 13 12 12 14 17 19 22 24 28 30 32 35 37 38 40 40 39 38 34 31 32 32 31 30 30 31 35 40 45 49 53 56 61 65 66 66 66 66 66 64 65 67 71 73 70 68 68 70 70 71 73 73 72 72 65 54 52 53 52 52 52 51 49 45 41 39 38 35 32 31 29 26 24
24 22 21 20 20 19 19 18 18 17 17 16 16 14 14 13 13 14 15 18 21 24 26 29 32 34 37 37 38 40 41 40 38 34 33 34 35 34 32 28 27 29 34 40 45 49 53 58 63 67 69 70 70 70 68 67 68 71 73 73 72 72 71 70 71 73 73 72 73 68 58 54 55 54 54 54 52 49 47 43 39 39 37 36 35 32 28 25
22 20 20 19 19 18 18 17 17 16 16 16 15 14 13 13 13 15 17 20 22 25 28 31 34 36 38 38 38 39 41 41 38 36 35 36 38 38 36 30 25 25 29 35 41 47 51 56 60 65 70 72 73 73 72 70 69 70 73 76 76 75 73 72 72 72 73 74 75 70 61 57 57 56 55 56 53 51 49 44 40 40 39 38 37 34 31 28
20 19 19 19 18 18 17 17 16 16 16 15 14 13 13 13 14 16 19 22 24 26 29 32 35 37 39 39 39 39 40 41 40 38 37 38 40 41 39 32 25 23 25 30 37 43 49 54 57 61 67 71 73 74 74 73 71 70 73 76 77 76 73 72 73 72 73 76 76 73 65 58 57 57 55 57 56 53 51 47 43 42 41 40 39 36 33 30
20 19 19 18 18 17 17 16 16 15 15 14 13 12 13 14 15 18 20 23 26 28 30 33 35 38 39 39 40 40 40 40 40 39 38 39 41 43 40 32 25 23 24 28 34 39 45 51 56 60 64 68 72 75 76 75 74 72 72 75 76 76 74 73 72 72 73 76 77 75 69 61 57 58 56 57 58 55 53 49 45 43 42 41 40 38 35 32
20 20 19 18 18 17 17 16 16 15 15 14 13 13 14 15 17 20 22 25 27 29 31 34 36 38 39 39 40 40 40 40 39 39 39 40 42 44 41 33 25 23 24 27 31 36 41 48 53 58 62 67 72 76 76 77 77 74 72 73 74 76 76 74 72 72 74 76 77 77 73 65 59 59 58 58 59 57 55 52 46 43 42 41 41 40 37 35
21 20 20 19 18 17 17 16 16 16 15 14 14 15 16 18 20 22 24 26 28 30 32 34 37 38 39 40 40 40 40 39 39 39 39 40 42 44 41 33 26 23 24 26 30 34 38 44 50 56 62 68 72 75 76 78 79 77 74 73 72 75 76 76 75 74 74 77 79 79 77 70 62 60 59 59 61 60 57 54 49 45 44 43 42 41 39 36
22 22 21 20 19 18 17 17 17 16 16 16 17 18 19 21 22 24 25 27 29 31 33 35 37 39 40 40 41 40 39 39 38 38 39 40 41 43 40 33 27 23 23 25 28 31 34 40 47 54 62 69 73 75 77 78 79 79 76 70 69 75 79 77 77 76 75 77 79 80 81 76 66 61 61 60 63 64 60 56 53 49 47 46 44 43 41 39
24 24 23 22 21 20 18 18 18 18 18 18 20 21 22 23 25 25 26 28 30 32 34 35 37 39 41 41 42 40 39 38 38 38 38 39 40 42 40 33 26 23 21 22 25 28 31 37 44 51 59 65 70 73 74 76 77 78 78 70 66 74 81 78 77 77 77 78 80 81 83 81 71 63 63 62 64 67 62 58 56 53 50 48 45 44 43 42
27 26 25 25 24 23 21 20 20 21 21 21 22 24 24 25 26 27 28 29 31 33 34 36 38 40 41 42 42 40 38 37 37 37 37 38 39 41 40 34 26 22 20 20 23 25 28 33 40 47 55 60 66 69 69 71 74 78 82 78 71 75 82 80 78 79 78 80 83 82 83 84 78 68 64 64 64 67 63 59 58 56 53 50 48 46 46 45
31 29 28 27 27 26 25 24 24 24 24 24 25 26 26 27 27 28 29 30 32 34 35 36 38 40 41 42 41 39 37 36 36 36 36 37 39 40 39 34 26 20 17 17 20 23 27 31 36 43 53 58 64 69 69 70 75 80 85 84 77 77 83 81 79 81 81 81 84 85 84 84 82 74 68 65 64 66 64 60 59 59 55 52 50 49 49 48
33 32 31 30 30 29 29 28 27 27 27 27 28 28 28 28 28 29 30 31 33 34 35 37 39 41 41 41 40 38 36 35 34 34 35 36 38 39 39 35 26 20 17 15 17 21 26 29 32 37 48 58 65 71 72 73 77 82 87 87 81 80 84 82 80 84 85 83 83 85 85 82 81 79 73 67 65 64 63 62 61 60 57 53 52 52 52 50
31 32 32 32 32 32 32 32 31 31 30 30 30 30 30 30 31 31 32 32 34 35 36 38 39 41 40 40 39 36 34 33 33 33 33 34 36 38 38 35 28 21 17 14 14 20 24 26 28 31 39 52 63 70 74 77 80 82 87 89 85 83 86 85 83 86 86 83 82 84 84 83 83 82 76 70 65 64 63 63 63 62 60 56 54 54 53 52
29 29 30 31 32 33 34 34 34 34 34 33 33 33 33 33 33 34 34 34 36 37 38 38 39 39 38 37 37 34 32 32 33 33 32 32 34 36 37 35 28 21 17 13 12 20 25 27 29 31 33 42 54 64 73 79 81 82 86 90 87 84 86 86 85 85 85 84 83 81 81 84 85 82 78 73 67 64 64 64 64 65 62 58 56 53 51 51
27 27 28 28 29 30 32 33 35 36 36 36 36 36 36 36 36 37 37 37 38 38 38 38 37 37 36 34 34 32 30 31 32 33 32 31 32 34 36 35 29 22 17 13 11 19 25 27 28 30 31 36 46 59 72 78 81 83 86 89 89 88 86 83 82 84 84 85 84 80 79 83 85 82 79 77 70 64 66 66 65 66 64 60 57 53 51 51
25 26 26 27 27 28 29 30 32 33 34 34 35 35 35 36 37 37 38 38 37 38 37 36 34 34 33 32 32 31 28 29 32 32 32 32 31 31 34 35 30 23 17 13 10 16 23 26 27 28 29 33 40 55 69 76 80 84 86 87 88 89 87 79 76 81 85 84 82 81 80 80 84 84 81 80 74 65 66 69 67 66 64 60 59 57 54 53
24 24 25 26 26 26 27 28 29 30 31 32 32 32 32 34 34 35 35 35 35 35 34 33 31 31 30 30 31 30 27 27 30 31 31 31 31 30 32 33 31 23 17 13 9 13 21 24 27 27 28 29 36 50 65 73 78 81 84 85 85 89 88 78 71 75 82 83 77 76 79 79 80 84 83 81 78 69 66 70 70 68 65 62 60 58 56 55
26 26 26 25 26 26 26 26 27 28 29 30 30 30 30 31 32 32 32 33 33 32 31 29 28 29 29 29 30 29 26 25 28 29 29 30 30 30 31 31 30 25 17 13 8 10 19 24 27 27 28 28 32 44 57 68 76 78 81 84 85 88 88 79 72 70 75 80 73 64 73 79 79 82 84 82 81 73 67 69 71 69 68 64 62 59 56 55
Wind_Direction
273 273 273 274 274 274 274 274 274 274 274 273 272 271 269 268 266 264 263 262 260 259 257 255 253 251 250 248 247 244 242 240 240 240 240 240 239 238 236 233 231 230 229 227 226 225 224 223 222 222 223 223 224 224 223 221 220 222 224 225 225 223 221 229 237 246 256 268 276 284 297 309 325 328 338 6 7 4 3 4 7 8 10 9 5 6 7 5
276 277 277 277 277 276 275 275 274 273 273 273 273 272 271 269 267 265 263 262 260 259 258 257 255 253 251 249 248 247 245 243 242 241 241 240 239 239 238 235 232 230 230 228 226 225 224 223 221 221 221 222 223 224 223 221 220 220 222 223 224 220 217 224 235 246 253 264 275 282 290 304 323 321 329 3 6 3 2 4 8 7 8 9 5 4 7 4
280 281 282 283 282 282 281 279 278 276 275 275 274 273 272 271 269 268 266 263 261 259 258 257 256 255 253 250 248 247 246 245 243 242 241 241 240 240 239 237 234 231 230 229 227 225 224 223 221 220 220 221 221 223 223 222 220 219 221 222 223 220 218 224 232 240 249 260 268 275 280 297 317 316 322 354 6 2 2 4 7 7 6 8 5 3 6 4
284 286 286 287 287 286 286 285 284 282 280 279 277 276 274 272 270 269 267 266 263 261 258 256 255 254 254 252 250 247 246 245 245 243 241 240 239 239 240 238 235 233 231 229 228 226 225 223 222 220 219 219 220 222 222 222 219 218 219 220 221 219 219 227 233 238 244 250 258 265 271 289 301 309 320 335 360 2 3 4 7 7 4 7 5 2 4 4
288 289 290 289 289 288 287 287 286 286 285 283 282 280 277 275 272 270 268 267 265 263 260 258 255 253 252 252 251 249 247 245 244 243 242 240 238 239 240 239 237 234 232 229 227 226 225 223 222 220 219 219 219 220 221 221 219 217 218 218 220 218 218 228 234 238 239 240 250 259 265 277 282 300 314 318 347 360 5 4 6 8 4 5 5 2 2 3
289 290 290 290 289 288 288 287 287 286 286 285 284 283 281 279 276 273 270 268 266 264 261 260 257 254 251 250 249 249 247 245 244 243 242 240 238 238 240 240 238 236 234 231 227 225 224 223 222 220 219 219 218 219 220 220 218 217 216 217 217 215 217 223 227 234 237 235 242 254 263 271 276 296 308 309 332 354 5 6 6 9 5 5 5 2 360 2
289 289 289 289 288 288 287 287 286 286 286 285 285 284 283 281 279 276 273 270 267 264 262 260 258 255 253 250 248 247 246 245 244 243 242 240 238 237 238 239 239 238 236 232 228 224 223 222 222 220 219 218 218 218 219 219 218 217 215 214 214 211 214 218 221 229 233 231 234 247 262 272 279 291 302 305 317 344 3 6 6 9 7 5 4 1 359 2
288 289 289 289 288 288 287 286 286 285 285 284 284 283 282 282 280 278 276 273 269 265 262 260 257 255 253 251 248 246 244 244 243 243 242 241 239 237 237 237 238 238 238 234 230 225 223 221 221 220 219 218 218 217 218 218 217 216 214 213 211 208 212 216 216 220 226 228 232 244 257 270 278 284 298 304 305 330 357 5 6 9 8 5 3 1 359 3
287 288 288 288 288 288 287 287 286 286 285 284 283 281 281 280 279 278 277 275 272 268 263 260 257 255 252 251 249 247 245 243 242 242 241 240 239 238 236 236 236 237 237 236 233 228 224 221 220 220 219 218 217 217 217 218 217 215 214 212 210 206 210 218 217 218 225 232 237 242 246 256 270 277 295 303 298 321 350 1 4 8 8 6 3 0 359 4
288 287 288 288 288 288 288 288 287 287 285 284 282 280 278 277 277 277 276 275 273 270 266 261 258 255 253 251 249 247 246 243 242 240 240 239 238 237 236 235 235 235 236 236 235 232 228 223 221 220 219 217 216 216 217 217 217 215 213 211 209 203 206 219 220 219 226 234 238 241 239 245 260 272 291 296 295 319 342 355 1 6 8 6 3 1 359 5
290 290 289 289 289 290 290 290 290 289 287 284 281 279 277 276 275 275 274 274 273 271 268 264 260 256 254 252 250 248 246 244 242 240 239 238 237 237 236 235 234 234 235 235 235 234 231 227 223 220 218 217 215 215 216 217 216 214 212 211 209 203 202 212 217 219 226 231 235 240 238 243 256 267 278 280 291 317 332 348 357 4 8 6 3 1 360 6
294 294 293 293 293 293 293 294 293 291 289 285 282 279 277 275 274 273 272 272 271 270 269 266 262 258 255 253 251 249 246 245 244 241 239 237 236 235 235 235 234 233 233 233 233 234 233 230 226 221 218 217 215 214 215 217 216 214 212 210 209 206 204 210 214 218 223 226 231 237 238 244 255 262 268 270 280 305 318 338 352 0 8 7 2 1 0 7
297 297 297 297 297 298 299 299 297 294 291 288 285 281 278 276 274 272 271 270 270 269 268 266 264 260 257 255 253 250 248 246 244 243 241 238 236 235 234 234 233 233 232 232 232 232 233 232 229 224 219 217 215 214 214 216 216 215 212 210 209 207 207 210 213 216 219 224 230 233 238 244 248 252 259 264 270 286 305 324 344 355 7 8 1 1 2 9
299 300 300 301 302 303 303 301 299 296 294 290 287 283 280 277 274 272 270 269 268 267 266 265 264 261 259 257 254 252 250 248 246 244 243 241 238 236 234 233 232 232 231 230 230 231 231 231 231 227 223 218 215 213 213 214 216 215 212 210 209 208 208 210 213 217 219 224 229 231 236 239 243 248 251 257 263 271 292 310 330 350 6 10 2 359 4 12
301 301 302 303 305 305 304 302 300 298 295 292 289 285 281 278 275 273 270 269 267 266 264 264 263 262 260 259 256 254 253 250 248 246 244 243 240 238 235 233 231 230 230 229 229 229 230 230 230 229 226 220 215 213 212 212 214 214 212 210 209 208 208 210 214 216 217 220 224 226 228 229 236 245 248 252 258 265 279 297 311 339 5 12 4 358 5 14
302 303 304 306 306 305 305 303 301 299 296 293 290 286 283 279 276 273 271 268 267 265 264 263 262 261 260 259 257 256 254 252 250 248 246 244 241 239 236 234 232 230 229 228 228 228 229 228 228 228 228 222 217 214 211 211 212 213 212 210 209 208 206 209 213 213 214 217 217 218 220 223 231 237 242 248 251 258 268 284 295 322 5 17 7 356 5 16
303 305 306 306 306 306 305 304 302 300 297 294 291 287 284 281 278 275 272 269 267 266 264 263 261 260 259 258 257 256 255 253 251 249 247 245 243 240 238 235 233 231 229 228 227 227 228 228 227 227 227 225 220 215 211 210 210 212 212 210 210 208 207 208 211 212 212 213 217 219 216 217 226 230 235 240 243 250 257 270 280 296 8 22 12 356 4 18
304 306 306 307 307 307 306 304 302 300 298 296 292 289 286 282 279 276 274 272 269 267 265 264 262 260 258 257 256 255 254 253 252 251 249 247 245 242 239 237 234 231 229 228 226 226 227 227 227 227 226 225 222 217 211 209 209 211 212 211 209 208 207 207 211 212 210 209 214 220 218 216 220 225 228 232 236 242 245 257 267 262 21 29 19 358 3 19
305 306 307 308 308 307 306 304 303 301 299 297 294 291 287 283 281 278 276 274 272 269 267 265 262 260 258 257 255 254 254 253 252 251 249 248 247 244 241 238 235 233 230 228 226 226 226 227 227 227 226 226 225 219 212 209 210 211 212 211 209 207 207 206 208 210 207 205 214 221 220 219 220 221 223 227 231 235 232 243 256 240 101 43 25 359 2 20
306 307 308 309 308 308 306 305 303 302 300 297 294 291 287 284 282 280 278 276 273 270 267 265 262 260 259 257 256 255 254 253 253 252 250 249 247 245 243 240 237 234 231 229 227 226 225 226 227 227 227 227 226 222 213 209 210 212 211 210 209 206 205 204 204 206 202 199 214 224 220 219 221 219 219 224 228 230 225 228 243 230 159 66 36 3 1 19
307 309 309 309 309 308 307 305 304 302 300 297 294 291 288 285 283 281 279 276 273 270 268 266 263 262 261 260 258 257 255 254 253 253 251 250 248 246 244 242 239 236 233 230 228 226 225 225 226 227 226 226 225 223 216 210 210 212 211 209 209 206 203 203 202 203 199 195 209 219 216 217 218 215 217 223 225 227 221 219 232 223 171 102 55 13 3 18
309 310 310 310 309 308 307 305 304 302 300 298 294 290 287 285 282 280 278 275 273 271 270 267 265 264 263 262 261 259 258 257 256 254 253 251 249 248 245 243 240 237 234 232 229 227 225 225 225 225 225 225 224 223 219 213 211 211 211 209 209 206 204 203 202 201 197 196 207 215 215 216 213 209 213 218 220 223 219 214 225 218 175 133 96 37 7 18
310 310 310 310 309 308 307 305 304 303 301 298 294 290 287 284 281 279 276 274 273 273 271 269 267 266 264 263 262 261 260 259 257 256 254 253 251 249 247 244 242 239 236 233 231 228 225 224 224 224 224 224 223 222 220 217 212 210 211 210 209 207 204 203 202 200 197 197 207 215 217 218 213 207 210 213 215 220 217 210 217 209 174 152 138 99 21 20
310 310 310 310 309 308 307 306 305 304 302 298 294 291 288 284 280 277 274 273 272 271 270 269 269 268 268 268 268 268 267 265 263 260 258 256 254 252 250 247 244 241 238 236 232 229 226 224 223 223 223 223 223 222 220 218 214 211 211 211 209 207 205 203 202 200 199 199 208 217 219 219 216 210 210 212 213 218 216 208 209 199 177 170 161 140 87 32
310 310 310 310 309 308 306 306 305 305 302 298 295 292 288 283 280 277 275 274 272 269 268 268 269 271 273 274 274 274 274 272 270 267 264 262 259 255 253 250 246 243 240 237 234 230 227 224 223 222 222 222 222 222 220 219 215 212 211 211 209 207 205 204 203 201 198 198 206 216 220 220 216 210 209 211 212 215 215 209 204 193 182 181 170 155 154 81
310 310 310 309 309 307 306 306 306 304 301 298 295 291 287 283 280 277 275 273 270 267 268 270 274 278 280 280 281 280 279 276 274 272 269 267 264 261 257 253 249 245 241 238 235 232 228 225 223 221 221 221 221 221 220 219 216 213 211 212 210 207 205 204 203 201 197 195 201 209 213 215 213 209 209 210 210 212 213 211 205 193 188 187 175 163 170 171
310 309 309 309 308 306 305 305 305 303 300 297 295 291 287 283 280 277 274 270 267 266 271 276 281 286 287 287 286 285 282 280 277 276 273 270 267 264 261 257 252 248 243 239 235 232 230 226 223 221 220 220 220 220 219 219 216 213 211 212 211 207 205 204 203 201 198 195 197 200 203 203 203 205 209 209 207 207 209 210 205 197 193 190 180 170 175 191
310 309 308 308 307 306 304 305 304 301 299 297 295 290 286 282 279 276 271 267 266 270 277 283 289 293 294 294 293 290 286 283 280 278 275 272 268 265 262 260 256 251 247 241 237 233 230 227 224 222 220 219 219 218 218 217 216 214 212 211 211 208 205 205 203 202 199 196 196 198 202 204 202 205 209 208 206 205 207 207 203 199 197 192 186 175 175 193
309 307 307 307 307 305 304 303 302 300 298 297 294 289 284 280 276 273 267 264 270 279 287 293 297 299 300 301 299 296 292 289 286 282 279 275 271 267 263 260 257 254 250 244 239 234 230 228 225 223 220 219 218 217 216 216 215 214 212 210 210 208 206 205 203 202 199 197 198 199 205 211 211 210 208 205 205 205 206 205 202 202 201 196 191 181 176 192
308 306 305 306 305 303 302 302 300 298 298 296 292 286 281 277 274 272 269 270 279 288 295 300 302 304 305 305 304 301 298 296 293 289 285 281 276 271 266 261 257 254 250 246 242 236 230 228 226 224 222 219 218 217 216 216 215 214 212 210 209 209 208 205 203 202 198 196 198 199 202 210 213 211 206 204 206 206 206 205 202 202 202 199 194 185 180 189
306 304 304 305 304 302 301 300 298 297 297 295 290 283 278 274 273 272 275 282 291 297 302 305 307 309 310 309 308 305 304 302 300 297 293 287 281 275 269 263 258 254 250 246 242 238 232 228 225 224 223 220 218 217 216 215 215 215 213 210 209 208 209 206 203 202 198 195 197 198 198 205 210 209 206 206 208 208 207 207 206 203 201 199 196 189 185 190
305 303 303 304 302 300 300 299 297 296 296 292 287 281 277 273 272 274 282 290 297 302 307 309 311 313 314 314 313 310 309 308 306 304 298 291 284 277 270 264 259 254 249 244 240 236 233 230 225 222 221 221 218 217 216 215 215 214 213 211 209 207 208 207 204 203 200 196 197 199 198 202 208 210 209 208 210 210 209 208 207 205 201 199 198 193 190 192
304 303 303 303 301 299 299 298 296 296 294 290 285 281 276 273 274 279 286 294 301 307 311 313 314 316 318 319 318 315 314 314 313 309 303 294 286 279 273 266 260 254 249 244 239 235 232 229 225 221 219 219 218 216 215 214 213 213 213 212 209 206 207 207 205 203 200 197 198 200 200 203 207 212 213 211 211 211 212 210 208 205 201 200 200 196 193 194
305 305 305 303 301 300 300 299 297 296 293 289 285 282 278 275 276 282 290 298 305 311 315 316 318 319 322 324 323 320 318 318 317 313 308 302 296 288 280 271 261 254 248 243 238 234 230 227 224 221 218 216 216 215 214 213 212 212 212 212 209 206 207 207 206 204 201 198 198 200 200 201 205 212 215 214 212 211 212 211 209 207 203 200 201 200 197 196
308 308 307 305 303 302 302 300 298 296 293 288 285 282 280 278 280 286 295 303 310 315 318 320 321 322 325 327 327 324 321 321 320 316 315 314 310 303 295 281 265 253 244 239 235 232 228 225 222 219 217 214 214 213 212 212 211 211 211 211 210 209 208 208 207 205 201 200 199 199 198 198 201 208 213 214 213 212 212 211 209 208 204 202 204 202 198 197
312 311 311 308 306 305 304 302 300 296 293 288 284 283 280 280 283 291 301 308 314 318 320 322 323 325 328 329 329 327 324 323 323 320 321 322 321 318 311 296 275 257 244 235 231 227 225 223 219 217 215 214 212 212 211 210 210 210 210 209 209 209 209 208 208 205 201 200 200 198 196 195 197 204 210 214 213 211 211 209 208 209 207 205 206 204 199 197
316 316 314 312 310 308 306 305 302 297 292 288 285 284 280 280 287 297 306 312 316 319 322 323 325 327 330 331 331 329 327 325 325 324 325 327 328 327 322 309 287 264 246 235 229 224 221 220 217 214 213 213 211 210 210 209 209 209 208 208 208 208 208 207 208 205 201 201 201 197 194 192 194 200 208 214 213 210 210 208 206 209 208 207 208 206 201 197
319 319 317 315 313 311 309 306 303 297 292 289 287 285 281 284 293 302 309 313 317 320 323 325 327 328 330 331 331 330 329 328 327 327 328 330 331 331 327 316 296 271 250 236 228 223 219 218 215 213 211 211 211 210 209 208 208 208 208 207 207 208 208 207 208 206 202 202 201 197 193 190 193 198 205 213 213 209 209 208 206 208 208 207 208 207 203 199
322 321 319 317 316 313 311 308 303 298 294 290 288 284 283 289 298 306 311 314 317 320 323 325 327 329 330 330 330 330 329 328 328 328 329 332 333 333 330 320 299 274 255 240 230 223 218 216 213 211 209 209 209 209 207 207 207 207 207 207 207 207 207 207 208 207 203 202 201 198 195 191 192 195 200 210 213 209 208 208 207 208 209 208 207 207 205 201
325 323 321 320 318 315 313 309 304 300 295 292 289 286 288 295 302 308 312 314 316 320 323 325 326 328 329 329 329 330 329 328 328 329 330 332 333 334 332 323 303 276 258 245 234 225 219 215 212 209 207 207 208 207 205 205 205 206 206 206 206 207 206 206 207 207 204 202 201 199 196 193 192 193 197 207 213 210 207 209 208 209 211 210 208 207 206 204
327 324 322 321 319 317 314 310 305 301 297 294 291 289 293 299 304 308 311 313 315 319 322 323 324 326 327 327 328 329 329 328 328 329 330 332 333 334 333 326 307 281 259 248 239 228 220 215 211 207 205 206 206 204 203 203 203 204 204 204 205 206 206 206 206 207 205 202 201 201 198 194 193 194 194 203 213 212 208 210 210 210 213 212 209 207 206 206
324 323 321 320 318 317 315 310 306 301 298 295 293 293 297 301 304 308 310 312 313 317 320 321 323 324 325 326 327 328 328 327 328 329 330 331 333 334 334 328 312 288 263 249 241 233 224 216 211 207 205 207 205 202 201 201 201 203 201 202 206 204 204 205 205 206 206 203 202 203 200 196 195 196 194 199 212 214 210 211 212 212 213 212 209 207 206 206
316 317 317 316 315 314 312 309 305 301 298 297 295 296 299 301 304 307 309 310 312 315 318 319 320 322 323 324 325 327 327 326 328 329 329 330 333 335 335 330 316 295 271 252 241 233 225 218 212 208 206 207 205 201 200 199 200 201 199 201 207 204 202 204 203 205 207 204 202 203 203 199 196 196 194 196 210 216 212 212 214 213 213 212 210 208 206 206
306 308 310 310 309 308 307 304 302 299 298 297 296 296 299 301 303 305 306 308 310 312 315 316 317 319 321 321 322 325 326 325 327 329 328 330 334 337 337 332 321 302 278 255 240 231 222 216 212 208 206 206 203 200 198 197 198 199 198 200 205 203 202 202 202 204 206 205 203 203 203 201 198 197 195 196 207 215 213 212 214 212 212 212 210 209 207 207
298 300 301 302 302 302 302 300 298 297 297 296 296 296 298 300 301 303 304 306 307 309 311 313 315 317 318 318 320 324 325 324 326 329 328 330 334 338 338 335 325 307 284 259 240 228 217 210 209 208 206 203 200 197 196 196 197 198 198 200 202 201 201 201 201 203 205 205 205 203 203 203 200 199 196 195 205 214 211 209 211 211 210 210 210 209 209 208
293 293 293 294 295 295 296 296 295 295 295 295 295 295 297 298 299 300 302 303 304 306 308 310 313 314 315 316 319 322 323 322 325 329 329 330 335 339 340 338 329 311 291 267 240 225 216 209 205 206 206 203 199 196 195 195 196 196 197 200 201 199 199 198 200 203 204 204 205 205 203 202 201 201 199 195 201 210 210 208 209 209 209 209 210 210 210 209
294 292 291 290 290 290 291 291 292 292 292 292 294 294 296 297 297 298 299 300 301 302 305 307 309 311 311 314 317 321 322 321 323 328 329 331 336 339 341 340 333 318 299 276 243 222 214 207 203 204 205 204 200 197 196 195 195 196 198 200 200 199 198 198 199 202 204 203 204 206 204 202 201 202 200 196 199 206 209 207 208 208 208 209 211 212 211 210
297 296 294 293 290 288 287 287 288 289 289 290 291 292 293 293 294 295 295 297 298 299 302 304 306 308 309 313 317 320 321 320 322 327 329 332 337 340 342 343 338 326 306 286 252 224 212 203 200 200 202 202 201 199 198 195 194 196 198 199 199 198 198 199 200 201 203 204 204 204 205 205 203 201 200 198 198 203 207 207 207 208 208 209 212 214 214 213
298 297 296 296 295 292 290 288 287 287 287 288 289 290 291 291 291 292 292 294 295 297 299 302 303 305 307 312 316 319 321 320 321 325 328 332 338 341 343 344 342 332 312 294 259 228 212 200 198 198 199 201 201 200 199 197 194 195 198 199 198 197 198 199 200 200 202 204 203 203 205 206 204 202 201 200 199 201 206 207 207 207 207 209 212 213 214 214
300 299 298 298 297 297 296 293 291 291 290 290 290 291 291 291 291 291 292 293 294 295 297 299 301 303 306 312 317 319 321 319 319 324 327 330 338 343 344 345 345 336 318 302 265 228 212 199 194 195 197 201 202 199 198 197 196 196 198 199 199 197 197 198 200 202 203 203 203 204 205 205 205 204 202 202 200 200 204 207 208 207 207 208 211 213 213 213
301 302 302 302 300 299 298 297 297 296 295 294 294 293 293 292 292 292 293 293 294 295 296 298 299 301 305 312 316 318 320 317 317 323 326 328 336 343 346 347 346 339 323 310 278 227 213 198 188 190 195 196 200 199 197 197 197 196 198 200 200 198 197 197 199 202 204 203 203 205 207 206 206 206 204 202 201 200 202 206 209 209 208 208 211 214 216 214
300 301 302 302 302 301 301 301 301 301 299 299 298 296 295 294 293 294 294 294 294 294 294 295 296 299 304 310 314 316 318 315 316 322 325 327 333 340 346 349 348 342 327 313 294 232 213 196 184 187 191 192 197 198 197 197 197 197 198 200 200 199 197 197 199 202 203 202 201 205 209 208 207 207 206 204 201 200 201 205 208 211 210 209 210 213 215 216
Height
10937 10937 10937 10937 10937 10937 10937 10937 10936 10936 10936 10936 10936 10936 10936 10936 10936 10936 10936 10936 10936 10937 10937 10937 10938 10938 10939 10939 10940 10941 10941 10942 10942 10943 10944 10944 10946 10947 10950 10952 10954 10957 10959 10962 10964 10967 10969 10971 10973 10974 10976 10978 10979 10981 10982 10984 10985 10987 10988 10990 10992 10995 10998 10998 10998 11000 10999 10998 10997 10996 10996 10995 10994 10993 10992 10991 10989 10988 10987 10985 10983 10981 10978 10976 10974 10971 10969 10967
10936 10936 10936 10935 10935 10935 10935 10935 10934 10934 10934 10934 10934 10934 10934 10934 10934 10934 10934 10934 10934 10934 10934 10935 10935 10936 10936 10937 10938 10938 10939 10940 10940 10941 10942 10942 10944 10945 10946 10948 10951 10953 10956 10959 10961 10964 10966 10968 10970 10972 10974 10975 10977 10978 10980 10982 10984 10985 10987 10989 10991 10993 10995 10996 10997 10999 10998 10997 10996 10996 10996 10995 10994 10993 10993 10991 10989 10988 10987 10986 10984 10982 10979 10977 10975 10972 10970 10967
10934 10934 10933 10933 10933 10933 10932 10932 10932 10932 10932 10931 10931 10931 10931 10931 10931 10931 10931 10931 10931 10932 10932 10932 10932 10933 10934 10935 10935 10936 10937 10937 10938 10939 10940 10940 10941 10942 10943 10944 10947 10950 10952 10955 10958 10961 10963 10965 10967 10969 10971 10972 10974 10975 10977 10980 10982 10984 10986 10987 10989 10991 10993 10994 10995 10997 10997 10997 10995 10996 10995 10995 10994 10993 10993 10991 10990 10989 10988 10986 10984 10982 10980 10978 10976 10973 10970 10968
10932 10931 10931 10931 10931 10930 10930 10929 10929 10929 10929 10928 10928 10928 10928 10928 10928 10927 10927 10927 10928 10928 10929 10929 10929 10930 10931 10932 10932 10934 10934 10935 10936 10937 10937 10938 10939 10940 10940 10941 10943 10946 10949 10951 10954 10957 10960 10962 10964 10966 10968 10969 10971 10973 10975 10977 10980 10982 10984 10985 10987 10990 10992 10993 10994 10995 10996 10996 10995 10995 10995 10995 10995 10993 10993 10992 10990 10989 10988 10986 10985 10983 10981 10979 10977 10974 10971 10969
10929 10929 10929 10928 10928 10927 10927 10927 10926 10926 10925 10925 10925 10925 10925 10924 10924 10924 10924 10924 10924 10924 10925 10925 10926 10927 10928 10928 10929 10930 10932 10932 10933 10934 10935 10936 10937 10937 10938 10939 10940 10943 10945 10948 10951 10954 10956 10958 10961 10963 10965 10966 10968 10970 10973 10975 10977 10980 10982 10984 10986 10988 10991 10992 10992 10993 10994 10995 10995 10995 10995 10995 10995 10994 10993 10992 10991 10990 10988 10987 10985 10984 10982 10980 10977 10975 10972 10970
10927 10926 10926 10926 10925 10924 10924 10924 10923 10923 10922 10922 10922 10921 10921 10920 10920 10920 10920 10920 10920 10921 10921 10921 10922 10923 10924 10925 10926 10927 10928 10929 10930 10931 10932 10933 10934 10935 10936 10936 10938 10939 10941 10943 10947 10950 10952 10955 10957 10959 10961 10963 10965 10968 10970 10972 10975 10977 10980 10982 10984 10986 10989 10991 10990 10991 10993 10994 10995 10995 10995 10995 10995 10994 10993 10992 10992 10990 10989 10987 10986 10985 10983 10980 10978 10976 10973 10970
10924 10924 10923 10923 10922 10921 10921 10920 10920 10919 10919 10918 10918 10917 10917 10916 10916 10916 10916 10916 10916 10916 10917 10917 10918 10919 10920 10921 10922 10923 10924 10925 10926 10927 10929 10930 10932 10933 10933 10934 10935 10936 10938 10940 10943 10946 10949 10951 10953 10955 10957 10959 10962 10965 10967 10969 10972 10975 10978 10980 10982 10984 10987 10988 10989 10990 10991 10992 10994 10995 10994 10994 10995 10994 10993 10992 10992 10991 10989 10988 10987 10985 10983 10981 10978 10976 10974 10971
10922 10921 10920 10920 10919 10918 10917 10917 10916 10916 10915 10915 10914 10913 10912 10911 10911 10911 10911 10911 10911 10912 10912 10913 10914 10915 10916 10917 10918 10919 10920 10921 10923 10924 10926 10927 10929 10930 10931 10931 10932 10933 10934 10936 10939 10942 10945 10947 10949 10951 10953 10956 10960 10962 10964 10966 10969 10973 10975 10978 10980 10983 10985 10986 10988 10989 10989 10990 10992 10993 10993 10994 10994 10994 10993 10992 10992 10991 10989 10988 10987 10986 10984 10982 10979 10977 10975 10972
10919 10918 10917 10916 10915 10915 10914 10913 10913 10912 10911 10910 10909 10909 10908 10907 10906 10906 10906 10907 10907 10907 10908 10908 10909 10910 10911 10912 10913 10914 10916 10918 10919 10920 10922 10924 10925 10926 10928 10929 10930 10930 10931 10933 10936 10938 10941 10943 10945 10947 10950 10953 10957 10959 10961 10963 10967 10970 10973 10975 10978 10981 10983 10984 10986 10988 10987 10989 10991 10992 10993 10993 10994 10993 10993 10992 10992 10991 10990 10988 10987 10986 10985 10982 10980 10978 10975 10973
10916 10915 10914 10913 10912 10911 10910 10909 10909 10908 10907 10906 10904 10904 10903 10902 10902 10902 10902 10902 10902 10902 10903 10904 10905 10906 10907 10908 10909 10910 10912 10913 10915 10916 10918 10920 10921 10923 10924 10925 10927 10927 10928 10930 10932 10935 10937 10939 10941 10943 10946 10950 10953 10955 10958 10960 10964 10967 10970 10973 10976 10979 10982 10983 10984 10985 10987 10988 10990 10991 10992 10993 10993 10993 10993 10992 10992 10991 10990 10989 10988 10987 10986 10983 10981 10978 10976 10974
10913 10912 10911 10910 10909 10908 10907 10905 10904 10903 10902 10900 10899 10898 10897 10897 10897 10897 10897 10897 10897 10898 10898 10899 10900 10901 10902 10903 10904 10906 10907 10909 10910 10912 10914 10915 10917 10919 10920 10922 10923 10924 10926 10927 10929 10931 10933 10935 10937 10940 10942 10945 10949 10952 10954 10957 10961 10964 10967 10970 10974 10977 10981 10981 10982 10984 10986 10988 10989 10991 10992 10993 10993 10993 10993 10993 10992 10991 10990 10989 10988 10988 10986 10984 10981 10979 10977 10975
10909 10908 10907 10906 10905 10904 10902 10901 10900 10898 10896 10895 10894 10893 10892 10891 10891 10892 10891 10892 10892 10893 10894 10894 10895 10896 10897 10899 10900 10901 10903 10904 10906 10908 10909 10911 10913 10914 10916 10918 10919 10921 10922 10924 10926 10927 10929 10931 10933 10936 10938 10941 10945 10948 10951 10954 10958 10961 10964 10968 10971 10975 10977 10979 10981 10984 10986 10987 10989 10990 10992 10993 10994 10993 10993 10992 10992 10991 10991 10990 10989 10988 10987 10985 10982 10980 10978 10975
10905 10904 10902 10901 10900 10899 10898 10896 10894 10893 10891 10889 10888 10888 10887 10886 10886 10886 10886 10887 10887 10888 10889 10890 10891 10892 10893 10894 10895 10897 10898 10900 10901 10903 10904 10906 10908 10910 10912 10913 10915 10917 10919 10920 10922 10923 10925 10927 10929 10932 10935 10937 10941 10944 10947 10951 10954 10958 10962 10965 10968 10971 10974 10977 10980 10982 10985 10987 10988 10990 10992 10993 10994 10993 10993 10992 10992 10991 10991 10990 10989 10989 10987 10985 10983 10980 10979 10976
10901 10900 10898 10897 10896 10894 10893 10891 10889 10887 10885 10884 10883 10882 10881 10881 10881 10880 10881 10881 10882 10883 10884 10885 10886 10887 10888 10889 10890 10892 10893 10895 10897 10898 10900 10901 10903 10905 10907 10909 10911 10913 10914 10916 10918 10919 10921 10923 10925 10928 10930 10933 10936 10940 10944 10947 10950 10954 10959 10963 10965 10968 10972 10975 10978 10980 10984 10986 10987 10990 10992 10993 10994 10993 10992 10992 10992 10991 10991 10990 10989 10989 10988 10986 10984 10981 10980 10978
10897 10895 10894 10893 10891 10890 10888 10886 10884 10882 10880 10879 10878 10877 10876 10876 10875 10875 10875 10876 10876 10877 10878 10879 10880 10882 10883 10884 10886 10887 10889 10890 10892 10893 10895 10896 10898 10900 10902 10904 10906 10907 10909 10911 10913 10915 10917 10918 10921 10923 10925 10928 10932 10935 10939 10943 10946 10950 10955 10959 10962 10966 10969 10972 10975 10977 10982 10984 10986 10989 10991 10993 10994 10992 10992 10991 10992 10991 10991 10991 10990 10989 10988 10986 10984 10982 10981 10979
10893 10891 10890 10888 10886 10885 10883 10880 10878 10876 10875 10874 10873 10872 10871 10870 10870 10870 10870 10870 10871 10872 10873 10874 10875 10877 10878 10879 10881 10882 10883 10885 10886 10888 10889 10891 10892 10895 10897 10898 10900 10902 10904 10907 10909 10910 10912 10914 10916 10918 10920 10924 10928 10930 10934 10939 10943 10947 10952 10956 10959 10962 10966 10969 10972 10975 10979 10982 10985 10987 10990 10994 10993 10991 10991 10991 10991 10991 10990 10990 10990 10989 10988 10987 10985 10983 10982 10980
10888 10887 10885 10883 10881 10879 10877 10875 10873 10871 10870 10869 10868 10867 10866 10865 10865 10865 10865 10865 10866 10867 10868 10869 10870 10872 10873 10874 10876 10877 10878 10879 10881 10882 10884 10885 10887 10889 10891 10893 10895 10897 10899 10902 10904 10906 10907 10909 10911 10913 10916 10919 10922 10926 10931 10936 10941 10945 10948 10951 10955 10959 10963 10967 10970 10973 10978 10981 10983 10985 10988 10991 10989 10988 10989 10990 10990 10990 10990 10990 10990 10989 10988 10987 10985 10984 10983 10981
10884 10882 10880 10878 10876 10874 10872 10869 10868 10866 10865 10864 10863 10862 10861 10860 10860 10860 10860 10860 10861 10862 10863 10863 10865 10866 10867 10868 10870 10871 10872 10874 10875 10876 10878 10879 10881 10883 10885 10887 10889 10892 10894 10896 10899 10900 10902 10904 10907 10909 10911 10914 10918 10923 10929 10935 10939 10941 10943 10947 10951 10955 10960 10965 10968 10971 10976 10980 10982 10982 10984 10987 10986 10986 10988 10989 10989 10990 10990 10990 10989 10989 10988 10987 10986 10985 10984 10982
10880 10878 10876 10874 10871 10869 10867 10864 10863 10861 10860 10859 10858 10857 10856 10856 10855 10855 10855 10856 10856 10857 10858 10859 10859 10860 10861 10863 10864 10865 10867 10868 10869 10871 10872 10874 10875 10877 10879 10881 10883 10885 10888 10891 10893 10895 10897 10900 10902 10904 10907 10911 10916 10921 10927 10932 10934 10935 10938 10942 10947 10952 10958 10963 10966 10969 10973 10977 10979 10979 10981 10984 10985 10985 10987 10988 10988 10989 10989 10989 10989 10989 10988 10987 10986 10985 10984 10982
10875 10873 10871 10869 10866 10864 10862 10859 10858 10856 10855 10854 10853 10852 10852 10851 10851 10851 10851 10851 10852 10852 10853 10854 10855 10855 10856 10857 10859 10860 10861 10862 10864 10865 10866 10868 10869 10871 10873 10875 10877 10879 10882 10884 10887 10889 10892 10894 10897 10900 10905 10909 10913 10918 10923 10927 10928 10930 10934 10938 10942 10947 10954 10959 10961 10965 10969 10973 10975 10975 10978 10982 10983 10985 10987 10987 10987 10988 10988 10988 10988 10988 10988 10987 10986 10986 10985 10983
10870 10868 10866 10864 10861 10859 10857 10855 10853 10852 10851 10850 10849 10848 10848 10847 10847 10847 10847 10847 10848 10848 10849 10850 10850 10851 10852 10853 10854 10855 10856 10857 10858 10860 10861 10862 10863 10865 10866 10868 10870 10873 10875 10878 10880 10884 10886 10889 10893 10897 10901 10904 10908 10913 10917 10921 10923 10925 10928 10932 10937 10942 10949 10953 10955 10960 10965 10969 10971 10971 10974 10978 10981 10985 10986 10985 10986 10987 10987 10987 10988 10988 10987 10987 10987 10986 10985 10984
10866 10864 10861 10859 10857 10854 10852 10850 10849 10848 10847 10846 10845 10844 10844 10844 10843 10844 10844 10844 10844 10845 10845 10846 10846 10847 10848 10849 10850 10850 10851 10852 10854 10855 10855 10856 10857 10859 10860 10861 10864 10866 10868 10871 10874 10878 10881 10885 10889 10892 10895 10899 10903 10907 10911 10915 10917 10920 10923 10927 10932 10938 10944 10947 10951 10956 10961 10965 10967 10967 10970 10974 10978 10982 10983 10984 10985 10985 10986 10987 10987 10987 10987 10987 10987 10986 10985 10985
10861 10859 10857 10854 10852 10850 10848 10846 10845 10844 10843 10842 10841 10841 10840 10840 10840 10840 10840 10840 10841 10841 10842 10842 10843 10844 10844 10845 10846 10846 10847 10848 10849 10849 10850 10851 10852 10853 10854 10855 10857 10859 10862 10865 10868 10871 10875 10880 10883 10885 10889 10893 10897 10901 10905 10908 10911 10915 10919 10922 10928 10933 10939 10943 10947 10953 10957 10961 10963 10964 10966 10970 10974 10978 10980 10982 10983 10984 10985 10986 10986 10987 10987 10987 10987 10986 10985 10985
10857 10855 10852 10850 10848 10845 10844 10842 10841 10840 10839 10838 10837 10837 10837 10836 10836 10837 10837 10837 10838 10838 10838 10839 10840 10841 10841 10842 10842 10842 10843 10844 10844 10845 10845 10846 10847 10847 10848 10849 10851 10853 10855 10858 10861 10865 10869 10873 10875 10879 10883 10887 10891 10895 10898 10902 10907 10911 10914 10918 10923 10928 10934 10938 10943 10949 10954 10959 10961 10961 10963 10967 10971 10974 10976 10979 10980 10982 10983 10985 10985 10986 10986 10986 10986 10986 10985 10985
10853 10851 10848 10846 10844 10841 10840 10838 10837 10836 10835 10835 10834 10834 10833 10833 10833 10833 10834 10834 10835 10835 10836 10836 10837 10838 10838 10839 10839 10839 10840 10840 10839 10840 10841 10841 10842 10842 10843 10843 10845 10846 10848 10851 10854 10858 10862 10865 10868 10873 10877 10880 10884 10888 10892 10897 10902 10906 10910 10914 10918 10923 10930 10935 10939 10945 10951 10957 10958 10958 10960 10964 10967 10971 10973 10975 10977 10979 10982 10983 10984 10985 10985 10986 10986 10986 10985 10985
10849 10847 10844 10842 10840 10838 10836 10835 10834 10833 10832 10831 10831 10831 10830 10830 10830 10831 10831 10831 10832 10833 10833 10834 10835 10835 10836 10836 10836 10836 10836 10835 10835 10835 10835 10836 10836 10837 10837 10838 10839 10840 10842 10844 10847 10851 10854 10857 10862 10867 10870 10874 10878 10882 10887 10891 10896 10901 10906 10909 10913 10919 10926 10931 10935 10941 10947 10952 10954 10955 10958 10961 10964 10968 10970 10973 10975 10978 10980 10982 10983 10984 10984 10985 10985 10985 10985 10985
10845 10842 10840 10838 10836 10834 10832 10831 10830 10829 10829 10828 10828 10828 10827 10827 10827 10828 10828 10829 10830 10831 10832 10832 10833 10833 10833 10833 10832 10832 10831 10830 10830 10829 10829 10829 10830 10831 10831 10832 10833 10834 10835 10837 10840 10843 10846 10850 10855 10859 10863 10866 10870 10874 10880 10885 10891 10897 10901 10905 10909 10916 10923 10927 10931 10937 10942 10947 10950 10952 10955 10957 10960 10964 10967 10970 10973 10976 10978 10980 10981 10982 10983 10984 10985 10985 10985 10985
10841 10838 10836 10835 10833 10831 10829 10828 10827 10826 10826 10825 10825 10825 10824 10825 10825 10825 10826 10827 10828 10829 10830 10831 10831 10830 10829 10829 10828 10827 10826 10825 10825 10824 10822 10822 10823 10823 10824 10825 10826 10827 10828 10831 10834 10837 10840 10844 10848 10851 10854 10857 10861 10867 10874 10879 10886 10891 10895 10900 10906 10913 10918 10922 10926 10931 10937 10942 10946 10948 10951 10953 10956 10960 10964 10968 10970 10973 10975 10978 10980 10981 10982 10983 10984 10984 10984 10985
10837 10835 10833 10831 10829 10828 10826 10825 10824 10823 10823 10822 10822 10822 10822 10822 10823 10823 10824 10825 10826 10827 10828 10828 10828 10827 10826 10824 10823 10821 10820 10820 10819 10818 10816 10815 10814 10815 10816 10817 10817 10819 10821 10823 10827 10830 10833 10837 10840 10842 10845 10849 10854 10861 10867 10873 10880 10885 10890 10895 10901 10907 10912 10916 10921 10927 10932 10937 10942 10944 10946 10950 10954 10958 10961 10964 10967 10969 10972 10975 10978 10980 10981 10982 10983 10983 10984 10985
10833 10831 10829 10828 10826 10825 10823 10822 10821 10820 10820 10819 10819 10819 10819 10820 10820 10821 10822 10823 10824 10825 10825 10825 10825 10824 10822 10820 10818 10816 10815 10813 10812 10811 10809 10807 10806 10805 10806 10807 10808 10809 10812 10815 10818 10822 10826 10829 10831 10834 10838 10843 10850 10856 10862 10868 10874 10879 10885 10891 10896 10901 10906 10911 10917 10922 10927 10933 10938 10941 10943 10947 10951 10955 10958 10961 10963 10966 10970 10973 10976 10977 10979 10980 10982 10982 10983 10984
10830 10828 10826 10824 10823 10821 10820 10819 10818 10818 10817 10817 10817 10817 10817 10817 10818 10819 10820 10821 10821 10822 10822 10822 10821 10820 10818 10816 10813 10810 10808 10807 10805 10803 10801 10798 10797 10795 10795 10795 10797 10799 10801 10805 10808 10812 10815 10818 10823 10828 10833 10839 10846 10851 10857 10863 10868 10873 10880 10885 10890 10895 10900 10906 10913 10919 10923 10928 10933 10937 10940 10943 10947 10951 10955 10958 10960 10964 10968 10970 10972 10975 10977 10979 10981 10982 10983 10984
10826 10824 10823 10821 10819 10818 10817 10816 10815 10815 10814 10814 10814 10814 10814 10815 10816 10816 10817 10818 10818 10818 10818 10818 10817 10816 10814 10811 10808 10805 10802 10800 10797 10795 10792 10790 10788 10785 10785 10784 10785 10787 10788 10792 10795 10798 10802 10808 10815 10822 10828 10834 10839 10845 10851 10856 10861 10867 10874 10878 10883 10889 10895 10901 10908 10912 10916 10923 10928 10932 10936 10940 10944 10947 10952 10955 10958 10961 10965 10967 10970 10973 10976 10978 10979 10980 10982 10983
10822 10821 10819 10818 10816 10815 10814 10813 10813 10812 10812 10812 10812 10812 10812 10812 10813 10814 10814 10815 10815 10815 10814 10814 10813 10812 10810 10807 10803 10799 10796 10793 10790 10787 10785 10782 10780 10778 10776 10774 10774 10775 10775 10778 10782 10786 10792 10799 10807 10815 10821 10826 10832 10838 10843 10846 10852 10859 10865 10869 10876 10884 10889 10893 10898 10902 10909 10918 10924 10928 10933 10937 10941 10944 10948 10952 10955 10959 10962 10965 10968 10971 10974 10975 10977 10979 10980 10982
10819 10817 10816 10815 10813 10812 10811 10811 10810 10809 10809 10809 10809 10809 10810 10810 10810 10811 10811 10812 10812 10811 10810 10809 10808 10807 10805 10802 10798 10794 10791 10788 10784 10781 10778 10775 10773 10771 10768 10766 10765 10764 10765 10767 10770 10775 10781 10788 10797 10805 10811 10817 10823 10828 10831 10837 10844 10851 10856 10864 10873 10878 10879 10883 10890 10896 10905 10914 10919 10925 10931 10935 10939 10942 10945 10948 10952 10956 10960 10963 10966 10969 10971 10974 10975 10977 10978 10980
10815 10814 10813 10812 10810 10810 10809 10808 10807 10807 10806 10806 10806 10807 10807 10807 10808 10808 10808 10808 10808 10807 10806 10805 10803 10802 10800 10797 10793 10789 10785 10782 10779 10775 10772 10769 10766 10763 10761 10758 10756 10755 10756 10757 10760 10765 10771 10777 10785 10793 10800 10806 10812 10817 10823 10831 10837 10843 10850 10861 10869 10872 10874 10880 10886 10893 10902 10910 10915 10922 10928 10931 10935 10938 10940 10944 10949 10954 10957 10961 10964 10966 10969 10971 10972 10974 10976 10978
10813 10812 10810 10809 10808 10807 10806 10805 10805 10804 10804 10804 10804 10804 10805 10805 10805 10805 10806 10805 10805 10803 10802 10801 10799 10797 10795 10792 10789 10784 10780 10777 10773 10770 10767 10763 10760 10756 10753 10750 10748 10747 10747 10749 10751 10756 10760 10765 10773 10781 10789 10796 10802 10808 10815 10822 10828 10835 10843 10852 10859 10863 10869 10876 10881 10888 10899 10905 10910 10918 10925 10928 10931 10934 10937 10939 10945 10951 10954 10958 10961 10963 10966 10968 10970 10972 10974 10977
10811 10809 10808 10807 10806 10805 10804 10803 10802 10802 10801 10801 10801 10802 10802 10803 10803 10803 10803 10802 10801 10800 10799 10797 10794 10792 10790 10787 10785 10781 10776 10772 10768 10765 10761 10758 10754 10750 10746 10743 10741 10740 10740 10741 10744 10747 10751 10755 10762 10770 10778 10785 10792 10800 10808 10814 10821 10829 10835 10842 10849 10854 10862 10870 10875 10885 10895 10900 10906 10914 10920 10924 10927 10930 10934 10936 10941 10947 10951 10955 10958 10960 10963 10965 10967 10970 10973 10975
10809 10807 10806 10804 10803 10802 10801 10801 10800 10799 10799 10799 10799 10800 10800 10800 10800 10800 10800 10799 10798 10797 10795 10793 10791 10788 10785 10783 10780 10777 10773 10768 10764 10760 10757 10753 10749 10745 10741 10737 10735 10734 10734 10734 10736 10739 10743 10747 10754 10762 10769 10778 10786 10793 10801 10809 10815 10822 10828 10835 10842 10850 10859 10865 10871 10881 10889 10894 10902 10910 10915 10920 10923 10926 10930 10932 10937 10944 10948 10952 10955 10956 10959 10962 10965 10968 10971 10973
10807 10805 10804 10802 10801 10800 10799 10798 10797 10797 10797 10797 10797 10797 10797 10798 10798 10798 10797 10796 10795 10793 10791 10789 10787 10784 10782 10779 10776 10773 10769 10765 10760 10756 10752 10749 10745 10741 10736 10733 10730 10728 10728 10729 10730 10732 10736 10740 10747 10754 10762 10769 10776 10784 10794 10802 10809 10817 10823 10830 10838 10846 10854 10861 10868 10876 10883 10888 10897 10906 10912 10916 10917 10920 10925 10928 10932 10939 10943 10948 10951 10954 10956 10959 10962 10966 10969 10971
10805 10803 10802 10800 10799 10798 10797 10796 10795 10795 10794 10795 10795 10795 10795 10795 10795 10795 10794 10792 10791 10790 10788 10785 10783 10781 10778 10775 10772 10769 10766 10762 10757 10753 10749 10745 10741 10736 10732 10728 10726 10724 10723 10723 10725 10727 10730 10734 10741 10748 10754 10759 10764 10774 10786 10795 10803 10811 10819 10827 10834 10841 10848 10856 10863 10870 10876 10883 10892 10900 10906 10909 10911 10915 10921 10924 10928 10934 10939 10944 10949 10952 10954 10956 10960 10963 10966 10969
10803 10801 10800 10798 10797 10796 10795 10794 10793 10793 10792 10792 10792 10792 10792 10792 10792 10791 10790 10789 10787 10786 10784 10782 10779 10777 10774 10772 10769 10766 10762 10758 10754 10750 10746 10741 10737 10733 10728 10724 10722 10720 10719 10719 10720 10722 10725 10729 10734 10741 10746 10749 10754 10765 10777 10787 10797 10805 10814 10822 10828 10835 10843 10849 10855 10862 10869 10877 10885 10890 10895 10902 10908 10912 10916 10920 10923 10929 10935 10941 10946 10949 10951 10954 10957 10961 10964 10966
10801 10799 10798 10796 10795 10794 10793 10792 10791 10791 10790 10790 10790 10790 10790 10789 10789 10788 10787 10786 10784 10782 10780 10778 10776 10773 10770 10768 10765 10762 10759 10755 10751 10746 10742 10738 10735 10730 10725 10721 10718 10716 10716 10715 10716 10719 10722 10725 10729 10734 10738 10740 10747 10758 10768 10779 10790 10800 10812 10819 10821 10827 10834 10841 10849 10858 10864 10870 10878 10883 10888 10895 10902 10907 10912 10916 10918 10924 10931 10937 10942 10946 10948 10951 10955 10958 10961 10964
10799 10797 10796 10794 10793 10792 10791 10790 10789 10788 10788 10787 10787 10786 10786 10786 10785 10784 10783 10782 10780 10778 10777 10775 10772 10769 10766 10763 10761 10758 10755 10751 10747 10743 10739 10736 10732 10728 10722 10717 10714 10713 10713 10712 10713 10715 10718 10721 10724 10728 10732 10737 10745 10757 10767 10777 10787 10798 10807 10811 10812 10818 10824 10833 10845 10853 10857 10864 10870 10876 10883 10890 10895 10901 10908 10911 10913 10919 10927 10933 10939 10943 10946 10948 10952 10955 10958 10960
10795 10795 10793 10792 10790 10789 10789 10788 10787 10786 10785 10785 10784 10783 10783 10782 10781 10780 10779 10778 10776 10775 10773 10771 10768 10766 10763 10760 10757 10754 10751 10748 10744 10740 10736 10732 10729 10725 10719 10714 10711 10710 10710 10709 10709 10711 10714 10717 10720 10724 10728 10734 10744 10756 10766 10773 10781 10789 10796 10798 10802 10810 10816 10825 10836 10843 10849 10856 10861 10866 10875 10883 10888 10895 10902 10907 10909 10915 10923 10929 10935 10939 10942 10945 10949 10952 10954 10957
10791 10791 10790 10789 10787 10786 10785 10785 10784 10783 10782 10781 10780 10779 10779 10779 10778 10777 10775 10774 10772 10771 10769 10767 10765 10762 10759 10756 10753 10750 10748 10745 10741 10738 10734 10730 10726 10722 10717 10712 10709 10707 10706 10706 10707 10708 10710 10712 10715 10719 10723 10729 10737 10747 10755 10761 10766 10774 10782 10788 10794 10802 10811 10820 10830 10835 10840 10847 10854 10861 10869 10878 10885 10891 10897 10902 10905 10910 10918 10924 10929 10934 10939 10942 10945 10948 10951 10953
10787 10786 10786 10785 10784 10783 10782 10781 10780 10779 10778 10778 10777 10776 10775 10775 10774 10773 10772 10770 10768 10767 10765 10763 10761 10758 10755 10753 10750 10747 10744 10741 10738 10735 10732 10727 10724 10719 10714 10709 10706 10705 10704 10703 10704 10705 10707 10709 10712 10715 10719 10723 10729 10736 10742 10748 10755 10764 10772 10779 10786 10794 10803 10813 10820 10825 10832 10841 10850 10857 10864 10873 10881 10887 10892 10898 10901 10907 10914 10920 10925 10930 10934 10938 10940 10943 10947 10951
10783 10782 10781 10781 10780 10779 10778 10777 10776 10775 10774 10774 10773 10772 10771 10770 10769 10769 10768 10766 10764 10763 10761 10759 10757 10755 10752 10749 10746 10743 10741 10738 10735 10732 10729 10726 10722 10717 10713 10708 10704 10702 10701 10701 10701 10702 10703 10706 10709 10713 10716 10720 10727 10733 10737 10741 10749 10758 10766 10772 10780 10788 10796 10804 10810 10817 10827 10837 10845 10854 10862 10869 10875 10881 10888 10894 10898 10904 10910 10915 10921 10925 10929 10933 10936 10940 10944 10947
10779 10778 10777 10776 10775 10774 10773 10772 10771 10771 10770 10769 10769 10768 10767 10766 10765 10764 10763 10762 10761 10759 10757 10756 10754 10751 10749 10746 10743 10740 10737 10734 10732 10730 10727 10724 10720 10715 10711 10706 10702 10700 10699 10698 10699 10699 10700 10702 10705 10709 10713 10718 10725 10732 10735 10739 10745 10752 10760 10768 10776 10784 10792 10798 10804 10814 10824 10832 10840 10852 10860 10865 10871 10877 10884 10891 10896 10900 10905 10911 10916 10920 10925 10930 10934 10939 10943 10946
10775 10774 10773 10772 10771 10770 10769 10768 10767 10766 10765 10765 10764 10764 10763 10762 10761 10760 10759 10758 10756 10755 10753 10752 10750 10748 10745 10743 10740 10737 10734 10731 10728 10726 10724 10722 10719 10714 10709 10705 10701 10699 10697 10697 10697 10697 10698 10700 10703 10707 10711 10715 10721 10727 10732 10737 10742 10748 10755 10763 10771 10779 10787 10794 10802 10812 10820 10828 10837 10846 10853 10860 10868 10874 10880 10888 10894 10897 10900 10906 10911 10915 10921 10927 10931 10936 10940 10943
10772 10771 10769 10768 10767 10766 10765 10763 10762 10761 10761 10760 10760 10759 10759 10757 10756 10755 10754 10753 10752 10751 10749 10748 10747 10744 10742 10740 10737 10734 10732 10729 10725 10723 10720 10719 10717 10714 10709 10704 10700 10698 10696 10695 10695 10695 10696 10698 10701 10705 10708 10712 10717 10722 10728 10734 10740 10745 10752 10760 10768 10775 10783 10792 10801 10808 10814 10823 10833 10841 10847 10856 10864 10871 10877 10884 10890 10892 10895 10901 10906 10910 10917 10922 10926 10930 10934 10937
10769 10767 10766 10765 10764 10763 10761 10760 10758 10757 10756 10756 10755 10755 10754 10753 10751 10751 10750 10748 10748 10746 10745 10744 10743 10741 10739 10737 10734 10732 10729 10727 10723 10720 10718 10715 10714 10712 10708 10703 10699 10696 10695 10693 10693 10693 10694 10696 10699 10702 10705 10708 10712 10718 10724 10731 10738 10745 10752 10759 10767 10773 10781 10790 10797 10803 10810 10821 10834 10842 10848 10854 10860 10867 10873 10879 10884 10888 10891 10896 10901 10906 10912 10917 10921 10925 10929 10932
10765 10764 10763 10762 10761 10759 10758 10757 10755 10754 10752 10751 10751 10750 10749 10748 10747 10746 10745 10744 10743 10742 10741 10740 10739 10737 10736 10734 10732 10729 10727 10724 10722 10718 10716 10713 10711 10709 10707 10703 10699 10695 10694 10692 10691 10691 10693 10694 10696 10698 10700 10704 10709 10715 10721 10729 10737 10745 10752 10759 10767 10773 10781 10788 10794 10799 10809 10822 10835 10843 10848 10852 10857 10862 10868 10874 10879 10883 10887 10891 10897 10902 10907 10913 10917 10921 10924 10928